Weather History for Taos, NM

Change the Weather History Date:

Friday, November 15, 2013

  Actual Average Record
Temperature  
Mean Temperature 37 °F -  
Max Temperature 53 °F 48 °F 66 °F (1999)
Min Temperature 21 °F 19 °F 12 °F (1997)
Degree Days  
Heating Degree Days 28    
Moisture  
Dew Point 26 °F    
Average Humidity 68    
Maximum Humidity 87    
Minimum Humidity 28    
Precipitation  
Precipitation 0.09 in - - ()
Sea Level Pressure  
Sea Level Pressure 29.87 in    
Wind  
Wind Speed 6 mph (WSW)    
Max Wind Speed 22 mph    
Max Gust Speed 28 mph    
Visibility 10 miles    
Events      
Averages and records for this station are not official NWS values.
T = Trace of Precipitation, MM = Missing Value Source: NWS Daily Summary

Daily Weather History Graph

Daily Weather History Graph

Search for Another Location

Airport:

Trip Planner

Search our weather history database for the weather conditions in past years. The results will help you decide how hot, cold, wet, or windy it might be!

Date:

Astronomy

Nov. 15, 2013 Rise Set
Actual Time 6:40 AM MST 4:53 PM MST
Civil Twilight 6:12 AM MST 5:21 PM MST
Nautical Twilight 5:41 AM MST 5:52 PM MST
Astronomical Twilight 5:11 AM MST 6:23 PM MST
Moon 3:50 PM MST (11/15) 4:42 AM MST (11/15)
Length of Visible Light 11h 08m
Length of Day
10h 13m
Waxing Gibbous, 97% of the Moon is Illuminated
Nov 15
Waxing Gibbous
Nov 17
Full
Nov 25
Last Quarter
Dec 2
New
Dec 9
First Quarter

Hourly Weather History & Observations

Time (MST) Temp. Windchill Dew Point Humidity Pressure Visibility Wind Dir Wind Speed Gust Speed Precip Events Conditions
12:15 AM 26.6 °F - 19.4 °F 74% 30.01 in 10.0 mi Calm Calm - N/A   Clear
12:35 AM 28.4 °F 23.3 °F 19.4 °F 69% 30.01 in 10.0 mi SSE 4.6 mph - N/A   Clear
12:55 AM 28.4 °F 21.2 °F 19.4 °F 69% 30.00 in 10.0 mi East 6.9 mph - N/A   Clear
1:15 AM 26.6 °F 22.6 °F 19.4 °F 74% 29.99 in 10.0 mi East 3.5 mph - N/A   Clear
1:35 AM 26.6 °F 20.0 °F 19.4 °F 74% 29.98 in 10.0 mi ESE 5.8 mph - N/A   Clear
1:55 AM 24.8 °F 17.9 °F 17.6 °F 74% 29.97 in 10.0 mi ESE 5.8 mph - N/A   Clear
2:15 AM 23.0 °F 18.4 °F 17.6 °F 80% 29.98 in 10.0 mi NNE 3.5 mph - N/A   Clear
2:35 AM 24.8 °F 20.5 °F 19.4 °F 80% 29.99 in 10.0 mi North 3.5 mph - N/A   Clear
2:55 AM 23.0 °F 15.8 °F 17.6 °F 80% 29.98 in 10.0 mi North 5.8 mph - N/A   Clear
3:15 AM 23.0 °F 17.0 °F 17.6 °F 80% 29.98 in 10.0 mi North 4.6 mph - N/A   Clear
3:35 AM 23.0 °F 15.8 °F 17.6 °F 80% 29.97 in 10.0 mi North 5.8 mph - N/A   Clear
3:55 AM 24.8 °F 19.1 °F 15.8 °F 69% 29.97 in 10.0 mi North 4.6 mph - N/A   Clear
4:15 AM 24.8 °F 20.5 °F 17.6 °F 74% 29.96 in 10.0 mi North 3.5 mph - N/A   Clear
4:35 AM 23.0 °F 14.7 °F 17.6 °F 80% 29.96 in 10.0 mi North 6.9 mph - N/A   Clear
4:55 AM 21.2 °F 11.7 °F 15.8 °F 80% 29.96 in 10.0 mi North 8.1 mph - N/A   Clear
5:15 AM 24.8 °F 16.9 °F 19.4 °F 80% 29.95 in 10.0 mi NE 6.9 mph - N/A   Partly Cloudy
5:35 AM 24.8 °F 20.5 °F 17.6 °F 74% 29.95 in 10.0 mi ENE 3.5 mph - N/A   Scattered Clouds
5:55 AM 23.0 °F 17.0 °F 17.6 °F 80% 29.94 in 10.0 mi NNE 4.6 mph - N/A   Mostly Cloudy
6:15 AM 26.6 °F 21.2 °F 19.4 °F 74% 29.94 in 10.0 mi North 4.6 mph - N/A   Mostly Cloudy
6:35 AM 24.8 °F 17.9 °F 19.4 °F 80% 29.94 in 10.0 mi North 5.8 mph - N/A   Overcast
6:55 AM 23.0 °F 15.8 °F 19.4 °F 86% 29.95 in 10.0 mi NNW 5.8 mph - N/A   Overcast
7:15 AM 24.8 °F 20.5 °F 21.2 °F 86% 29.94 in 10.0 mi North 3.5 mph - N/A   Overcast
7:35 AM 28.4 °F 23.3 °F 21.2 °F 74% 29.95 in 10.0 mi North 4.6 mph - N/A   Overcast
7:55 AM 30.2 °F 25.4 °F 24.8 °F 80% 29.94 in 10.0 mi NNE 4.6 mph - N/A   Mostly Cloudy
8:15 AM 35.6 °F 32.8 °F 24.8 °F 65% 29.94 in 10.0 mi NE 3.5 mph - N/A   Partly Cloudy
8:35 AM 39.2 °F - 24.8 °F 56% 29.95 in 10.0 mi Calm Calm - N/A   Clear
8:55 AM 37.4 °F 34.9 °F 24.8 °F 60% 29.94 in 10.0 mi NNW 3.5 mph - N/A   Clear
9:15 AM 39.2 °F - 23.0 °F 52% 29.94 in 10.0 mi Calm Calm - N/A   Clear
9:35 AM 42.8 °F - 21.2 °F 42% 29.95 in 10.0 mi Calm Calm - N/A   Scattered Clouds
9:55 AM 42.8 °F 39.3 °F 23.0 °F 46% 29.95 in 10.0 mi WSW 5.8 mph - N/A   Mostly Cloudy
10:15 AM 44.6 °F 40.7 °F 23.0 °F 43% 29.95 in 10.0 mi West 6.9 mph - N/A   Partly Cloudy
10:35 AM 46.4 °F 45.2 °F 24.8 °F 43% 29.94 in 10.0 mi WSW 3.5 mph - N/A   Clear
10:55 AM 46.4 °F 45.2 °F 24.8 °F 43% 29.92 in 10.0 mi West 3.5 mph - N/A   Clear
11:15 AM 48.2 °F - 24.8 °F 40% 29.91 in 10.0 mi South 6.9 mph - N/A   Partly Cloudy
11:35 AM 51.8 °F - 23.0 °F 33% 29.90 in 10.0 mi SW 12.7 mph - N/A   Partly Cloudy
11:55 AM 51.8 °F - 23.0 °F 33% 29.88 in 10.0 mi SSW 18.4 mph 23.0 mph N/A   Mostly Cloudy
12:15 PM 53.6 °F - 23.0 °F 30% 29.87 in 10.0 mi WSW 11.5 mph 21.9 mph N/A   Overcast
12:35 PM 53.6 °F - 21.2 °F 28% 29.85 in 10.0 mi WSW 9.2 mph 21.9 mph N/A   Scattered Clouds
12:55 PM 53.6 °F - 21.2 °F 28% 29.83 in 10.0 mi SW 11.5 mph 23.0 mph N/A   Clear
1:15 PM 53.6 °F - 21.2 °F 28% 29.82 in 10.0 mi SSW 21.9 mph 27.6 mph N/A   Clear
1:35 PM 53.6 °F - 21.2 °F 28% 29.81 in 10.0 mi SW 20.7 mph 25.3 mph N/A   Clear
1:55 PM 51.8 °F - 21.2 °F 30% 29.81 in 10.0 mi SSW 18.4 mph - N/A   Clear
2:15 PM 51.8 °F - 21.2 °F 30% 29.82 in 10.0 mi SW 19.6 mph 25.3 mph N/A   Mostly Cloudy
2:35 PM 46.4 °F 40.4 °F 26.6 °F 46% 29.82 in 10.0 mi West 13.8 mph 23.0 mph N/A   Overcast
2:55 PM 46.4 °F 41.1 °F 28.4 °F 50% 29.81 in 10.0 mi SW 11.5 mph - N/A   Mostly Cloudy
3:15 PM 42.8 °F 35.4 °F 32.0 °F 66% 29.82 in 8.0 mi SW 15.0 mph 25.3 mph N/A   Overcast
3:35 PM 42.8 °F 40.1 °F 33.8 °F 70% 29.81 in 10.0 mi West 4.6 mph - N/A   Overcast
3:55 PM 42.8 °F - 33.8 °F 70% 29.80 in 10.0 mi Calm Calm - N/A   Mostly Cloudy
4:15 PM 42.8 °F - 33.8 °F 70% 29.80 in 10.0 mi Calm Calm - N/A   Overcast
4:35 PM 41.0 °F 38.0 °F 35.6 °F 81% 29.80 in 10.0 mi NNW 4.6 mph - N/A   Overcast
4:55 PM 41.0 °F 34.3 °F 33.8 °F 76% 29.81 in 8.0 mi WSW 11.5 mph - 0.05 in   Overcast
5:15 PM 39.2 °F - 33.8 °F 81% 29.80 in 10.0 mi Calm Calm - 0.02 in   Overcast
5:35 PM 37.4 °F 31.4 °F 33.8 °F 87% 29.79 in 10.0 mi SE 8.1 mph - 0.03 in   Overcast
5:55 PM 37.4 °F 31.4 °F 33.8 °F 87% 29.80 in 10.0 mi East 8.1 mph - 0.03 in   Overcast
6:15 PM 37.4 °F 29.3 °F 33.8 °F 87% 29.79 in 10.0 mi SE 12.7 mph - N/A   Overcast
6:35 PM 37.4 °F 30.3 °F 33.8 °F 87% 29.79 in 10.0 mi SE 10.4 mph - N/A   Mostly Cloudy
6:55 PM 35.6 °F 30.7 °F 32.0 °F 87% 29.79 in 10.0 mi ESE 5.8 mph - N/A   Scattered Clouds
7:15 PM 35.6 °F 29.2 °F 32.0 °F 87% 29.78 in 10.0 mi ESE 8.1 mph - N/A   Mostly Cloudy
7:35 PM 37.4 °F 31.4 °F 32.0 °F 81% 29.77 in 10.0 mi SSE 8.1 mph - N/A   Mostly Cloudy
7:55 PM 39.2 °F 33.0 °F 33.8 °F 81% 29.75 in 10.0 mi South 9.2 mph - N/A   Mostly Cloudy
8:15 PM 39.2 °F 32.5 °F 33.8 °F 81% 29.76 in 10.0 mi South 10.4 mph - N/A   Overcast
8:35 PM 41.0 °F 34.3 °F 35.6 °F 81% 29.76 in 10.0 mi SW 11.5 mph 17.3 mph N/A   Mostly Cloudy
8:55 PM 41.0 °F 34.7 °F 35.6 °F 81% 29.77 in 10.0 mi WSW 10.4 mph - N/A   Overcast
9:15 PM 41.0 °F 32.8 °F 35.6 °F 81% 29.77 in 10.0 mi WSW 16.1 mph 21.9 mph N/A   Mostly Cloudy
9:35 PM 41.0 °F 33.9 °F 35.6 °F 81% 29.77 in 10.0 mi SW 12.7 mph 20.7 mph 0.01 in   Scattered Clouds
9:55 PM 41.0 °F 33.5 °F 35.6 °F 81% 29.76 in 10.0 mi SW 13.8 mph - 0.01 in   Partly Cloudy
10:15 PM 41.0 °F 33.9 °F 35.6 °F 81% 29.76 in 10.0 mi SW 12.7 mph - N/A   Scattered Clouds
10:35 PM 39.2 °F 32.5 °F 35.6 °F 87% 29.76 in 10.0 mi SW 10.4 mph - N/A   Mostly Cloudy
10:55 PM 39.2 °F 33.6 °F 33.8 °F 81% 29.77 in 10.0 mi SW 8.1 mph - N/A   Mostly Cloudy
11:15 PM 39.2 °F 33.0 °F 33.8 °F 81% 29.76 in 10.0 mi SSW 9.2 mph - N/A   Mostly Cloudy
11:35 PM 39.2 °F 33.0 °F 33.8 °F 81% 29.76 in 10.0 mi SSW 9.2 mph - N/A   Partly Cloudy
11:55 PM 39.2 °F 33.0 °F 33.8 °F 81% 29.76 in 10.0 mi SW 9.2 mph - N/A   Scattered Clouds